807  
ASUS43 KGLD 281008  
RWRGLD  
 
GOODLAND FORECAST AREA HOURLY WEATHER ROUNDUP  
NATIONAL WEATHER SERVICE GOODLAND KS  
400 AM MDT SUN MAY 28 2017  
   
..OFFICIAL OBSERVATIONS
 
 
 
CITY SKY/WX TMP DP RH WIND PRES REMARKS
 
GOODLAND KS CLEAR 46 44 93 W12 30.12S  
HILL CITY KS CLEAR 51 49 92 W6 30.04F  
IMPERIAL NEB CLEAR 48 41 76 W13 30.08F  
MCCOOK NEB CLEAR 50 46 86 W10 30.05F  
AKRON CO CLEAR 43 40 89 W14 30.19S  
BURLINGTON CO CLEAR 45 42 89 W10 30.16S  
LIMON CO CLEAR 39 37 92 W8 30.23F  

 
   
..UNOFFICIAL OBSERVATIONS
 
 
 
CITY SKY/WX TMP DP RH WIND PRES REMARKS
 
LENORA KS N/A 52 32 46 MISG N/A  
NORTON KS CLEAR 50 45 81 W7 30.03S  
SHARON SPRINGS N/A 46 44 91 NW12 N/A  
TRENTON NEB N/A 49 32 52 W5 N/A  

 
 
 
CLICK HERE TO GO TO PREVIOUS BULLETINS.

The Nexlab KS Page
The Nexlab CO Page
The Nexlab NE Page Main Text Page